Location: Sawmill Trailhead
(33.5800°N, 116.4497°W)
Time: 08:39:40
(UTC-07:00)

Amateur Radio Satellites - All Passes

Search period start: 27 March 2015 08:09
Search period end: 28 March 2015 08:09
Location: Sawmill Trailhead, 33.5800°N, 116.4497°W

Satellite Date Start Highest point End Downlink Frequencies (MHz)
Time Altitude Azimuth
GOMX 1 27 Mar 08:16:40 08:17:46 11° 92° (E) 08:19:12 467.674
HO-68 27 Mar 08:22:55 08:27:57 21° 93° (E) 08:33:17 435.675
ISS 27 Mar 08:24:07 08:24:37 10° 233° (SW) 08:24:59 145.825
Cubesat XI-IV 27 Mar 08:27:53 08:31:15 17° 293° (WNW) 08:34:22 437.490
CUTE-I 27 Mar 08:28:28 08:31:49 17° 293° (WNW) 08:34:56 437.470
SEEDS 27 Mar 08:32:38 08:34:01 12° 90° (E) 08:35:41 437.485
STRAND 1 27 Mar 08:32:44 08:34:19 11° 270° (W) 08:35:30 437.568
CUSAT 1 27 Mar 08:42:30 08:46:49 69° 262° (W) 08:52:38 437.405
BRITE-PL 27 Mar 08:52:53 08:56:59 51° 100° (E) 09:01:16 437.365/2234.400
COMPASS 1 27 Mar 08:57:26 09:00:27 19° 94° (E) 09:03:36 437.405
GONETS M04 27 Mar 09:03:45 09:09:47 20° 277° (W) 09:15:19
VERMONT LUNAR 27 Mar 09:04:31 09:07:20 24° 1° (N) 09:10:08 437.305
DANDE 27 Mar 09:17:15 09:21:06 37° 262° (W) 09:26:06 436.750
CANX-2 27 Mar 09:18:42 09:22:59 62° 101° (E) 09:27:14 2200.000
PHONESAT 2.4 27 Mar 09:24:26 09:27:29 26° 356° (N) 09:30:31 2401.200-2431.200
UNISAT 6 27 Mar 09:28:06 09:28:48 10° 67° (ENE) 09:29:46 437.425
CUTE 1.7 + AOD 2 27 Mar 09:32:59 09:37:18 84° 100° (E) 09:41:37 437.475
TIGRISAT 27 Mar 09:38:05 09:40:09 14° 69° (ENE) 09:42:26 435.000
CINEMA 3 27 Mar 09:49:31 09:53:48 49° 99° (E) 09:58:16 145.822/145.860
GOMX 1 27 Mar 09:52:05 09:56:12 48° 285° (WNW) 10:00:30 467.674
DOVE 4 27 Mar 09:52:11 09:56:31 75° 282° (WNW) 10:01:02 437.250
DX 1 27 Mar 09:53:02 09:54:29 12° 91° (E) 09:56:12 434.975-435.025
NANOSAT C BR1 27 Mar 09:54:37 09:55:21 11° 68° (ENE) 09:56:19 145.865
POLYITAN 1 27 Mar 09:56:04 09:57:20 11° 68° (ENE) 09:58:50 437.675
BEESAT 3 27 Mar 10:00:56 10:04:14 25° 112° (ESE) 10:07:38 437.485
DELFI C3 27 Mar 10:01:34 10:05:16 32° 97° (E) 10:08:58 145.870
ANTELSAT 27 Mar 10:05:19 10:09:00 30° 73° (ENE) 10:12:47 437.575/2403.000
SEEDS 27 Mar 10:06:02 10:10:08 45° 285° (WNW) 10:14:13 437.485
AAUSAT CUBESAT 2 27 Mar 10:06:51 10:11:04 65° 284° (WNW) 10:15:15 437.432
HUMSAT D 27 Mar 10:08:21 10:09:40 11° 91° (E) 10:11:16 437.325/437.525
HO-68 27 Mar 10:09:05 10:16:10 61° 289° (WNW) 10:23:12 435.675
Oscar 11 27 Mar 10:14:09 10:18:29 64° 101° (E) 10:22:48 145.826/435.025
CUBEBUG 2 27 Mar 10:17:34 10:21:54 54° 100° (E) 10:26:23 437.445
UWE-3 27 Mar 10:17:43 10:21:55 43° 99° (E) 10:26:15 435.000/436.395/437.385
FUNcube-1 27 Mar 10:19:58 10:23:59 36° 98° (E) 10:28:07 145.935
AIST 2 27 Mar 10:21:23 10:22:23 11° 109° (ESE) 10:23:40 435.215
VELOX 1 27 Mar 10:23:55 10:24:44 11° 90° (E) 10:25:51 145.980
AISAT 27 Mar 10:26:42 10:28:24 12° 91° (E) 10:30:22 437.250
ZACube-1 27 Mar 10:31:42 10:35:59 51° 99° (E) 10:40:21 437.345
QB50P1 27 Mar 10:32:12 10:35:54 31° 73° (ENE) 10:39:40 145.935-145.965
COMPASS 1 27 Mar 10:32:32 10:36:10 27° 288° (WNW) 10:39:44 437.405
BRITE-PL 27 Mar 10:34:17 10:35:14 10° 291° (WNW) 10:35:55 437.365/2234.400
DUCHIFAT 1 27 Mar 10:35:24 10:39:09 33° 73° (ENE) 10:42:58 145.980
VERMONT LUNAR 27 Mar 10:42:17 10:45:31 42° 18° (NNE) 10:48:46 437.305
QB50P2 27 Mar 10:45:47 10:49:50 47° 75° (ENE) 10:53:55 145.880/145.840
ESTCUBE 1 27 Mar 10:49:08 10:49:49 10° 90° (E) 10:50:49 437.505/2401.250
BEESAT 2 27 Mar 10:58:01 11:02:06 79° 298° (WNW) 11:06:16 435.950
UNISAT 6 27 Mar 11:01:01 11:05:11 54° 260° (W) 11:09:23 437.425
PHONESAT 2.4 27 Mar 11:03:08 11:06:24 33° 13° (NNE) 11:09:41 2401.200-2431.200
TIGRISAT 27 Mar 11:12:37 11:16:37 39° 262° (W) 11:20:37 435.000
POPSAT HIP 1 27 Mar 11:14:57 11:19:10 76° 258° (WSW) 11:23:24 437.405
50 SAT 27 Mar 11:19:27 11:23:26 58° 100° (E) 11:27:25 437.505
UKube-1 27 Mar 11:19:44 11:24:01 60° 285° (WNW) 11:28:15 .
NANOSAT C BR1 27 Mar 11:26:40 11:30:48 53° 260° (W) 11:34:56 145.865
BUGSAT 1 27 Mar 11:26:47 11:30:58 77° 258° (WSW) 11:35:08 437.445
DX 1 27 Mar 11:26:53 11:31:03 46° 286° (WNW) 11:35:11 434.975-435.025
CINEMA 3 27 Mar 11:28:39 11:30:43 13° 290° (WNW) 11:32:35 145.822/145.860
POLYITAN 1 27 Mar 11:28:48 11:32:54 48° 261° (W) 11:36:59 437.675
DELFI C3 27 Mar 11:37:39 11:40:12 16° 290° (WNW) 11:42:36 145.870
BEESAT 3 27 Mar 11:38:54 11:42:15 23° 307° (NW) 11:45:34 437.485
HUMSAT D 27 Mar 11:41:39 11:45:44 46° 285° (WNW) 11:49:50 437.325/437.525
ANTELSAT 27 Mar 11:42:58 11:45:54 17° 267° (W) 11:48:41 437.575/2403.000
UWE-3 27 Mar 11:55:45 11:58:11 14° 290° (WNW) 12:00:26 435.000/436.395/437.385
AIST 2 27 Mar 11:56:25 12:00:34 53° 301° (WNW) 12:04:47 435.215
CUBEBUG 2 27 Mar 11:56:36 11:58:16 12° 291° (WNW) 11:59:40 437.445
FUNcube-1 27 Mar 11:57:14 12:00:06 17° 290° (WNW) 12:02:50 145.935
VELOX 1 27 Mar 11:57:24 12:01:41 52° 285° (WNW) 12:05:57 145.980
AISAT 27 Mar 12:01:05 12:05:18 45° 286° (WNW) 12:09:30 437.250
CUBEBUG 1 27 Mar 12:04:15 12:08:36 80° 102° (ESE) 12:12:54 437.445
QB50P1 27 Mar 12:09:03 12:11:53 17° 267° (W) 12:14:33 145.935-145.965
ZACube-1 27 Mar 12:10:10 12:12:01 12° 291° (WNW) 12:13:37 437.345
DUCHIFAT 1 27 Mar 12:12:28 12:15:08 16° 267° (W) 12:17:35 145.980
VERMONT LUNAR 27 Mar 12:20:05 12:23:14 36° 212° (SSW) 12:26:23 437.305
TISAT 1 27 Mar 12:21:15 12:24:31 22° 95° (E) 12:27:51 437.305
ESTCUBE 1 27 Mar 12:22:41 12:27:07 55° 285° (WNW) 12:31:30 437.505/2401.250
SPROUT 27 Mar 12:22:48 12:26:29 29° 96° (E) 12:30:15 437.525
QB50P2 27 Mar 12:24:45 12:26:04 11° 269° (W) 12:27:05 145.880/145.840
PHONESAT 2.4 27 Mar 12:41:23 12:44:54 65° 209° (SSW) 12:48:27 2401.200-2431.200
Gurwin Techsat 1B 27 Mar 13:18:50 13:21:33 15° 66° (ENE) 13:24:33 435.225
Oscar 19 27 Mar 13:19:07 13:24:09 63° 75° (ENE) 13:29:13 437.125/150
SWISSCUBE 27 Mar 13:40:09 13:44:14 29° 96° (E) 13:48:24 437.505
BEESAT 27 Mar 13:43:31 13:47:37 29° 96° (E) 13:51:46 436.000
YUBILEINY 27 Mar 13:47:04 13:55:36 60° 92° (E) 14:04:15 435.215
TISAT 1 27 Mar 13:56:53 14:00:15 23° 289° (WNW) 14:03:32 437.305
SPROUT 27 Mar 13:59:20 14:02:26 19° 289° (WNW) 14:05:24 437.525
ITAMSAT 1 27 Mar 14:19:30 14:24:42 78° 77° (ENE) 14:29:57 435.822/435.867
ITUPSAT 1 27 Mar 14:28:26 14:33:16 90° 180° (S) 14:38:02 437.325
KKS-1 27 Mar 14:28:32 14:30:46 14° 92° (E) 14:33:13 437.445
O/OREOS (USA 219) 27 Mar 14:36:12 14:40:42 60° 69° (ENE) 14:45:09 437.305
PCSat 27 Mar 14:36:34 14:41:35 41° 111° (ESE) 14:46:41 145.827
JUGNU 27 Mar 14:36:36 14:40:09 16° 169° (S) 14:43:46 437.505
AIST 1 27 Mar 14:47:26 14:49:27 13° 72° (ENE) 14:51:42
AO-7 27 Mar 14:50:06 14:56:51 30° 63° (ENE) 15:03:48 29.400- 29.500
Gurwin Techsat 1B 27 Mar 14:55:52 15:01:05 60° 259° (W) 15:06:22 435.225
Oscar 19 27 Mar 15:02:02 15:04:01 12° 270° (W) 15:05:38 437.125/150
STARS 27 Mar 15:04:38 15:08:05 23° 95° (E) 15:11:40 437.465
SWISSCUBE 27 Mar 15:18:08 15:22:00 24° 290° (WNW) 15:25:44 437.505
BEESAT 27 Mar 15:21:29 15:25:21 24° 290° (WNW) 15:29:06 436.000
SRMSAT 27 Mar 15:32:44 15:35:12 13° 166° (SSE) 15:37:46 437.500
HORYU 2 27 Mar 15:33:07 15:37:31 78° 77° (ENE) 15:41:58 437.375
JAS-2 27 Mar 15:45:17 15:51:33 47° 70° (ENE) 15:58:36 435.910
YUBILEINY 27 Mar 15:45:58 15:53:03 25° 290° (WNW) 15:59:51 435.215
KKS-1 27 Mar 16:03:27 16:07:38 41° 287° (WNW) 16:11:48 437.445
PCSat 27 Mar 16:20:51 16:25:12 23° 307° (NW) 16:29:26 145.827
AIST 1 27 Mar 16:23:22 16:27:22 37° 268° (W) 16:31:17
JUGNU 27 Mar 16:24:09 16:28:33 21° 179° (S) 16:32:57 437.505
STARS 27 Mar 16:40:53 16:44:32 25° 289° (WNW) 16:48:04 437.465
AO-7 27 Mar 16:41:10 16:49:17 55° 258° (WSW) 16:57:22 29.400- 29.500
SRMSAT 27 Mar 17:19:32 17:23:44 20° 175° (S) 17:27:58 437.500
MOZHAYETS 4 27 Mar 17:23:10 17:27:49 72° 100° (E) 17:32:26
JAS-2 27 Mar 17:31:20 17:36:55 27° 269° (W) 17:42:49 435.910
AUBIESAT-1 27 Mar 17:34:26 17:38:37 30° 100° (E) 17:42:46 437.475
RS-15 27 Mar 17:50:23 17:58:08 24° 105° (ESE) 18:06:29 29.354- 29.394
M-CUBED/EXP-1 PRIME 27 Mar 17:56:38 18:01:27 60° 105° (ESE) 18:06:08 437.505
Cubesat XI-IV 27 Mar 18:04:17 18:09:32 59° 74° (ENE) 18:14:51 437.490
CUTE-I 27 Mar 18:04:43 18:09:58 59° 74° (ENE) 18:15:16 437.470
GONETS M04 27 Mar 18:09:21 18:13:12 15° 82° (E) 18:17:47
JUGNU 27 Mar 18:12:59 18:16:58 18° 189° (S) 18:20:53 437.505
SO-50 27 Mar 18:39:46 18:43:49 33° 113° (ESE) 18:48:04 436.795
HO-68 27 Mar 18:52:19 18:52:58 10° 57° (ENE) 18:54:11 435.675
STRAND 1 27 Mar 19:04:34 19:09:02 31° 97° (E) 19:13:34 437.568
CUBESAT XI-V 27 Mar 19:04:38 19:09:15 64° 100° (E) 19:13:48 437.345
PRISM 27 Mar 19:07:42 19:11:48 53° 100° (E) 19:15:50 437.425
SRMSAT 27 Mar 19:08:03 19:12:18 20° 185° (S) 19:16:31 437.500
AUBIESAT-1 27 Mar 19:09:18 19:13:18 26° 294° (WNW) 19:17:09 437.475
BEESAT 2 27 Mar 19:22:07 19:25:05 19° 51° (NE) 19:28:06 435.950
M-CUBED/EXP-1 PRIME 27 Mar 19:33:16 19:35:51 14° 298° (WNW) 19:38:11 437.505
Cubesat XI-IV 27 Mar 19:47:15 19:50:06 14° 269° (W) 19:52:38 437.490
CUTE-I 27 Mar 19:47:39 19:50:30 14° 269° (W) 19:53:02 437.470
RS-15 27 Mar 19:58:42 20:09:36 73° 301° (WNW) 20:20:39 29.354- 29.394
BRITE-PL 27 Mar 19:59:52 20:04:24 40° 75° (ENE) 20:08:41 437.365/2234.400
GONETS M04 27 Mar 20:00:23 20:09:05 88° 276° (W) 20:17:52
BEESAT 3 27 Mar 20:00:46 20:04:49 60° 60° (ENE) 20:08:49 437.485
CANX-2 27 Mar 20:08:18 20:11:47 26° 72° (ENE) 20:15:21 2200.000
SO-50 27 Mar 20:20:42 20:24:26 23° 309° (NW) 20:28:12 436.795
CUTE 1.7 + AOD 2 27 Mar 20:22:10 20:25:58 34° 74° (ENE) 20:29:51 437.475
AIST 2 27 Mar 20:22:18 20:26:00 29° 54° (NE) 20:29:40 435.215
HO-68 27 Mar 20:32:33 20:39:37 69° 72° (ENE) 20:46:46 435.675
STRAND 1 27 Mar 20:43:58 20:48:08 25° 290° (WNW) 20:52:09 437.568
CUBESAT XI-V 27 Mar 20:45:08 20:46:13 11° 293° (WNW) 20:46:59 437.345
DANDE 27 Mar 20:46:01 20:48:29 18° 98° (E) 20:50:43 436.750
PRISM 27 Mar 20:46:03 20:46:52 10° 293° (WNW) 20:47:24 437.425
DELFI C3 27 Mar 20:47:26 20:49:06 13° 69° (ENE) 20:50:59 145.870
CINEMA 3 27 Mar 20:48:21 20:51:52 26° 73° (ENE) 20:55:24 145.822/145.860
AAUSAT CUBESAT 2 27 Mar 20:53:45 20:57:45 47° 75° (ENE) 21:01:47 437.432
SEEDS 27 Mar 20:53:50 20:58:01 72° 76° (ENE) 21:02:13 437.485
DOVE 4 27 Mar 20:54:07 20:58:32 68° 77° (ENE) 21:02:46 437.250
GOMX 1 27 Mar 20:56:12 21:00:51 73° 259° (W) 21:05:14 467.674
SRMSAT 27 Mar 20:58:03 21:00:49 13° 194° (SSW) 21:03:30 437.500
BEESAT 2 27 Mar 20:59:38 21:03:19 31° 247° (WSW) 21:06:53 435.950
Oscar 11 27 Mar 21:05:21 21:09:03 29° 73° (ENE) 21:12:50 145.826/435.025
UWE-3 27 Mar 21:12:11 21:15:14 21° 71° (ENE) 21:18:24 435.000/436.395/437.385
CUBEBUG 2 27 Mar 21:12:52 21:16:18 26° 73° (ENE) 21:19:49 437.445
FUNcube-1 27 Mar 21:13:23 21:15:57 17° 70° (ENE) 21:18:40 145.935
COMPASS 1 27 Mar 21:19:11 21:23:20 68° 259° (W) 21:27:31 437.405
ZACube-1 27 Mar 21:24:47 21:28:03 23° 72° (ENE) 21:31:23 437.345
BRITE-PL 27 Mar 21:40:00 21:43:05 16° 266° (W) 21:45:50 437.365/2234.400
CANX-2 27 Mar 21:44:32 21:47:43 20° 266° (W) 21:50:49 2200.000
ISS 27 Mar 21:47:38 21:48:31 11° 127° (SE) 21:49:33 145.825
CUSAT 1 27 Mar 21:50:46 21:53:19 22° 280° (W) 21:55:33 437.405
CUTE 1.7 + AOD 2 27 Mar 21:59:30 22:02:04 15° 268° (W) 22:04:27 437.475
AIST 2 27 Mar 22:01:15 22:04:27 20° 249° (WSW) 22:07:28 435.215
50 SAT 27 Mar 22:02:43 22:05:29 19° 71° (ENE) 22:08:22 437.505
GONETS M04 27 Mar 22:02:46 22:07:25 14° 297° (WNW) 22:11:25
UKube-1 27 Mar 22:10:27 22:14:44 67° 76° (ENE) 22:19:03 .
RS-15 27 Mar 22:16:47 22:24:29 20° 328° (NNW) 22:31:53 29.354- 29.394
DX 1 27 Mar 22:18:07 22:22:30 88° 83° (E) 22:26:53 434.975-435.025
DELFI C3 27 Mar 22:20:08 22:23:57 40° 262° (W) 22:27:49 145.870
HO-68 27 Mar 22:23:13 22:28:00 18° 269° (W) 22:32:24 435.675
CINEMA 3 27 Mar 22:25:59 22:29:06 19° 266° (W) 22:32:04 145.822/145.860
HUMSAT D 27 Mar 22:29:26 22:33:30 71° 77° (ENE) 22:37:36 437.325/437.525
DANDE 27 Mar 22:31:14 22:31:42 10° 283° (WNW) 22:31:58 436.750
AAUSAT CUBESAT 2 27 Mar 22:32:47 22:33:43 10° 270° (W) 22:34:22 437.432
QB50P2 27 Mar 22:38:02 22:38:42 10° 90° (E) 22:39:40 145.880/145.840
Oscar 11 27 Mar 22:42:12 22:45:18 19° 267° (W) 22:48:16 145.826/435.025
UWE-3 27 Mar 22:48:17 22:51:42 24° 265° (W) 22:55:02 435.000/436.395/437.385
FUNcube-1 27 Mar 22:48:25 22:52:06 30° 263° (W) 22:55:45 145.935
CUBEBUG 2 27 Mar 22:50:00 22:53:03 19° 266° (W) 22:55:57 437.445
VELOX 1 27 Mar 22:50:46 22:55:13 82° 77° (ENE) 22:59:40 145.980
AISAT 27 Mar 22:54:37 22:59:06 86° 257° (WSW) 23:03:33 437.250
CUBEBUG 1 27 Mar 22:56:31 23:00:37 39° 74° (ENE) 23:04:44 437.445
UNISAT 6 27 Mar 22:56:41 23:01:02 41° 98° (E) 23:05:27 437.425
ZACube-1 27 Mar 23:01:09 23:04:24 21° 266° (W) 23:07:32 437.345
POPSAT HIP 1 27 Mar 23:04:54 23:08:14 23° 95° (E) 23:11:40 437.405
TIGRISAT 27 Mar 23:07:41 23:12:10 54° 100° (E) 23:16:44 435.000
TISAT 1 27 Mar 23:12:10 23:13:05 11° 68° (ENE) 23:14:15 437.305
BUGSAT 1 27 Mar 23:14:04 23:16:58 20° 95° (E) 23:19:59 437.445
SPROUT 27 Mar 23:14:36 23:16:49 14° 69° (ENE) 23:19:14 437.525
NANOSAT C BR1 27 Mar 23:15:56 23:19:42 31° 97° (E) 23:23:30 145.865
ESTCUBE 1 27 Mar 23:18:00 23:22:32 82° 78° (ENE) 23:27:07 437.505/2401.250
POLYITAN 1 27 Mar 23:18:26 23:22:18 35° 98° (E) 23:26:13 437.675
ISS 27 Mar 23:21:27 23:24:38 49° 320° (NW) 23:27:48 145.825
PCSat 27 Mar 23:29:36 23:32:45 16° 49° (NE) 23:36:06 145.827
ANTELSAT 27 Mar 23:37:00 23:41:34 66° 283° (WNW) 23:46:11 437.575/2403.000
50 SAT 27 Mar 23:37:08 23:40:18 23° 265° (W) 23:43:25 437.505
QB50P1 27 Mar 23:56:32 00:00:46 77° 283° (WNW) 00:04:59 145.935-145.965
DUCHIFAT 1 27 Mar 23:59:27 00:03:39 72° 284° (WNW) 00:07:51 145.980
YUBILEINY 28 Mar 00:03:25 00:09:57 24° 69° (ENE) 00:16:49 435.215
QB50P2 28 Mar 00:10:51 00:14:57 49° 285° (WNW) 00:19:03 145.880/145.840
CUBEBUG 1 28 Mar 00:34:36 00:37:11 15° 268° (W) 00:39:33 437.445
UNISAT 6 28 Mar 00:34:39 00:37:32 16° 291° (WNW) 00:40:15 437.425
POPSAT HIP 1 28 Mar 00:40:41 00:44:03 23° 289° (WNW) 00:47:20 437.405
SWISSCUBE 28 Mar 00:43:22 00:46:58 22° 70° (ENE) 00:50:42 437.505
TISAT 1 28 Mar 00:44:22 00:48:30 52° 260° (W) 00:52:38 437.305
TIGRISAT 28 Mar 00:46:32 00:48:33 12° 292° (WNW) 00:50:20 435.000
BEESAT 28 Mar 00:46:41 00:50:15 22° 70° (ENE) 00:53:57 436.000
SPROUT 28 Mar 00:48:35 00:52:37 39° 262° (W) 00:56:39 437.525
BUGSAT 1 28 Mar 00:49:09 00:52:26 24° 288° (WNW) 00:55:39 437.445
NANOSAT C BR1 28 Mar 00:52:32 00:55:21 17° 290° (WNW) 00:58:01 145.865
POLYITAN 1 28 Mar 00:55:20 00:57:59 16° 290° (WNW) 01:00:28 437.675
PCSat 28 Mar 01:11:20 01:16:43 66° 247° (WSW) 01:22:04 145.827
ITUPSAT 1 28 Mar 01:31:09 01:35:54 66° 75° (ENE) 01:40:42 437.325
Oscar 19 28 Mar 01:35:06 01:39:37 31° 96° (E) 01:44:13 437.125/150
YUBILEINY 28 Mar 01:58:49 02:07:31 64° 267° (W) 02:16:05 435.215
STARS 28 Mar 01:59:24 02:01:21 13° 68° (ENE) 02:03:32 437.465
SWISSCUBE 28 Mar 02:20:22 02:24:40 32° 263° (W) 02:28:56 437.505
BEESAT 28 Mar 02:23:39 02:27:56 32° 263° (W) 02:32:12 436.000
ITAMSAT 1 28 Mar 02:36:47 02:41:34 38° 98° (E) 02:46:23 435.822/435.867
RS-15 28 Mar 02:53:14 03:02:02 25° 38° (NE) 03:11:31 29.354- 29.394
KKS-1 28 Mar 02:57:15 03:01:42 77° 258° (WSW) 03:06:09 437.445
O/OREOS (USA 219) 28 Mar 03:08:23 03:09:39 11° 100° (E) 03:11:14 437.305
Oscar 19 28 Mar 03:14:36 03:18:52 26° 290° (WNW) 03:23:03 437.125/150
Gurwin Techsat 1B 28 Mar 03:16:05 03:21:25 78° 101° (E) 03:26:44 435.225
SO-50 28 Mar 03:16:09 03:18:32 14° 45° (NE) 03:21:08 436.795
HORYU 2 28 Mar 03:29:18 03:32:38 21° 94° (E) 03:36:05 437.375
STARS 28 Mar 03:33:16 03:37:28 45° 261° (W) 03:41:41 437.465
ITAMSAT 1 28 Mar 04:16:57 04:20:51 21° 292° (WNW) 04:24:36 435.822/435.867
AUBIESAT-1 28 Mar 04:19:55 04:22:34 18° 64° (ENE) 04:25:31 437.475
MOZHAYETS 4 28 Mar 04:21:11 04:25:29 41° 74° (ENE) 04:29:51
M-CUBED/EXP-1 PRIME 28 Mar 04:41:58 04:45:32 37° 68° (ENE) 04:49:27 437.505
JAS-2 28 Mar 04:44:00 04:51:38 62° 99° (E) 04:58:36 435.910
O/OREOS (USA 219) 28 Mar 04:44:11 04:48:40 53° 292° (WNW) 04:53:11 437.305
AO-7 28 Mar 04:46:58 04:55:13 68° 104° (ESE) 05:03:29 29.400- 29.500
AIST 1 28 Mar 04:48:07 04:52:26 53° 279° (W) 04:56:46
SO-50 28 Mar 04:54:45 04:59:43 74° 242° (WSW) 05:04:35 436.795
Gurwin Techsat 1B 28 Mar 04:59:09 05:00:50 11° 295° (WNW) 05:02:10 435.225
VERMONT LUNAR 28 Mar 05:00:27 05:03:25 30° 147° (SSE) 05:06:26 437.305
RS-15 28 Mar 05:04:39 05:16:20 88° 63° (ENE) 05:28:28 29.354- 29.394
HORYU 2 28 Mar 05:05:24 05:09:19 29° 288° (WNW) 05:13:10 437.375
PHONESAT 2.4 28 Mar 05:28:54 05:31:37 21° 144° (SE) 05:34:22 2401.200-2431.200
ISS 28 Mar 05:52:21 05:55:05 25° 36° (NE) 05:57:51 145.825
AUBIESAT-1 28 Mar 05:53:47 05:57:12 29° 260° (W) 06:00:50 437.475
PRISM 28 Mar 05:54:39 05:57:57 23° 71° (ENE) 06:01:22 437.425
MOZHAYETS 4 28 Mar 06:00:11 06:02:57 15° 269° (W) 06:05:31
CUBESAT XI-V 28 Mar 06:04:03 06:08:25 39° 73° (ENE) 06:12:49 437.345
GONETS M04 28 Mar 06:16:02 06:24:02 39° 75° (ENE) 06:32:12
STRAND 1 28 Mar 06:16:37 06:21:02 31° 71° (ENE) 06:25:34 437.568
M-CUBED/EXP-1 PRIME 28 Mar 06:18:45 06:20:45 13° 266° (W) 06:22:37 437.505
Cubesat XI-IV 28 Mar 06:26:06 06:30:49 33° 97° (E) 06:35:35 437.490
CUTE-I 28 Mar 06:26:21 06:31:03 32° 97° (E) 06:35:49 437.470
JAS-2 28 Mar 06:30:05 06:36:03 24° 296° (WNW) 06:41:27 435.910
VERMONT LUNAR 28 Mar 06:37:50 06:41:04 46° 341° (NNW) 06:44:20 437.305
AO-7 28 Mar 06:41:06 06:47:26 24° 300° (WNW) 06:53:28 29.400- 29.500
PHONESAT 2.4 28 Mar 07:06:16 07:09:46 66° 337° (NNW) 07:13:17 2401.200-2431.200
RS-15 28 Mar 07:19:45 07:27:47 20° 256° (WSW) 07:35:06 29.354- 29.394
DANDE 28 Mar 07:27:57 07:30:28 16° 78° (ENE) 07:33:39 436.750
ISS 28 Mar 07:28:49 07:31:26 22° 230° (SW) 07:34:00 145.825
PRISM 28 Mar 07:30:01 07:33:23 23° 265° (W) 07:36:41 437.425
CUBESAT XI-V 28 Mar 07:42:56 07:46:03 17° 268° (W) 07:48:58 437.345
STRAND 1 28 Mar 07:55:58 08:00:15 26° 265° (W) 08:04:26 437.568
